Weather History for Cloquet, MN

Change the Weather History Date:

Saturday, February 9, 2013

  Actual Average Record
Temperature  
Mean Temperature 19 °F -  
Max Temperature 26 °F 22 °F 37 °F (1998)
Min Temperature 12 °F 6 °F -13 °F (2003)
Degree Days  
Heating Degree Days 46    
Moisture  
Dew Point 17 °F    
Average Humidity 83    
Maximum Humidity 93    
Minimum Humidity 73    
Precipitation  
Precipitation 0.00 in - - ()
Sea Level Pressure  
Sea Level Pressure 30.02 in    
Wind  
Wind Speed 5 mph (SSE)    
Max Wind Speed 13 mph    
Max Gust Speed 17 mph    
Visibility 7 miles    
Events      
Averages and records for this station are not official NWS values.
T = Trace of Precipitation, MM = Missing Value Source: NWS Daily Summary

Daily Weather History Graph

Daily Weather History Graph

Search for Another Location

Airport:

Trip Planner

Search our weather history database for the weather conditions in past years. The results will help you decide how hot, cold, wet, or windy it might be!

Date:

Astronomy

Feb. 09, 2013 Rise Set
Actual Time 7:22 AM CST 5:26 PM CST
Civil Twilight 6:51 AM CST 5:57 PM CST
Nautical Twilight 6:15 AM CST 6:33 PM CST
Astronomical Twilight 5:40 AM CST 7:08 PM CST
Moon 6:34 AM CST (2/9) 5:11 PM CST (2/9)
Length of Visible Light 11h 06m
Length of Day
10h 03m
Waning Crescent, 0% of the Moon is Illuminated
Feb 9
Waning Crescent
Feb 10
New
Feb 17
First Quarter
Feb 25
Full
Mar 4
Last Quarter

Hourly Weather History & Observations

Time (CST) Temp. Windchill Dew Point Humidity Pressure Visibility Wind Dir Wind Speed Gust Speed Precip Events Conditions
12:16 AM 12.2 °F 4.3 °F 6.8 °F 79% 30.19 in 10.0 mi ESE 4.6 mph - N/A   Scattered Clouds
12:36 AM 12.2 °F 4.3 °F 6.8 °F 79% 30.18 in 10.0 mi ESE 4.6 mph - N/A   Scattered Clouds
12:56 AM 12.2 °F 6.1 °F 6.8 °F 79% 30.17 in 10.0 mi ESE 3.5 mph - N/A   Mostly Cloudy
1:16 AM 12.2 °F 4.3 °F 6.8 °F 79% 30.16 in 10.0 mi ESE 4.6 mph - N/A   Overcast
1:36 AM 12.2 °F 4.3 °F 6.8 °F 79% 30.15 in 10.0 mi ESE 4.6 mph - N/A   Overcast
1:56 AM 14.0 °F 6.5 °F 6.8 °F 73% 30.15 in 10.0 mi SE 4.6 mph - N/A   Overcast
2:15 AM 14.0 °F 8.2 °F 8.6 °F 79% 30.14 in 10.0 mi SE 3.5 mph - N/A   Overcast
2:36 AM 14.0 °F 8.2 °F 8.6 °F 79% 30.14 in 10.0 mi SE 3.5 mph - N/A   Overcast
2:56 AM 15.8 °F 8.6 °F 8.6 °F 73% 30.13 in 10.0 mi ESE 4.6 mph - N/A   Overcast
3:15 AM 15.8 °F 7.2 °F 8.6 °F 73% 30.11 in 10.0 mi ESE 5.8 mph - N/A   Overcast
3:36 AM 15.8 °F 7.2 °F 8.6 °F 73% 30.10 in 10.0 mi ESE 5.8 mph - N/A   Overcast
3:56 AM 15.8 °F 7.2 °F 8.6 °F 73% 30.09 in 10.0 mi ESE 5.8 mph - N/A   Overcast
4:15 AM 15.8 °F 10.2 °F 8.6 °F 73% 30.08 in 10.0 mi ESE 3.5 mph - N/A   Overcast
4:36 AM 15.8 °F - 8.6 °F 73% 30.09 in 10.0 mi Calm Calm - N/A   Overcast
4:56 AM 15.8 °F - 8.6 °F 73% 30.09 in 10.0 mi Calm Calm - N/A   Overcast
5:15 AM 15.8 °F - 8.6 °F 73% 30.09 in 10.0 mi Calm Calm - N/A   Overcast
5:36 AM 15.8 °F 10.2 °F 10.4 °F 79% 30.08 in 10.0 mi ESE 3.5 mph - N/A   Overcast
5:56 AM 15.8 °F 10.2 °F 10.4 °F 79% 30.08 in 10.0 mi SE 3.5 mph - N/A   Overcast
6:15 AM 15.8 °F 8.6 °F 10.4 °F 79% 30.07 in 10.0 mi SE 4.6 mph - N/A   Overcast
6:36 AM 17.6 °F 9.3 °F 12.2 °F 79% 30.05 in 10.0 mi SE 5.8 mph - N/A   Overcast
6:56 AM 17.6 °F 10.7 °F 12.2 °F 79% 30.05 in 10.0 mi SE 4.6 mph - N/A   Overcast
7:15 AM 17.6 °F 10.7 °F 14.0 °F 86% 30.05 in 10.0 mi SE 4.6 mph - N/A   Overcast
7:36 AM 17.6 °F 9.3 °F 14.0 °F 86% 30.03 in 10.0 mi ESE 5.8 mph - N/A   Overcast
7:56 AM 17.6 °F 12.3 °F 14.0 °F 86% 30.04 in 10.0 mi South 3.5 mph - N/A   Overcast
8:15 AM 19.4 °F 12.8 °F 15.8 °F 86% 30.04 in 7.0 mi SSE 4.6 mph - N/A   Overcast
8:36 AM 19.4 °F 11.5 °F 15.8 °F 86% 30.04 in 7.0 mi SSE 5.8 mph - N/A   Overcast
8:56 AM 19.4 °F 14.3 °F 15.8 °F 86% 30.04 in 7.0 mi SSE 3.5 mph - N/A   Overcast
9:16 AM 21.2 °F 13.6 °F 17.6 °F 86% 30.04 in 7.0 mi South 5.8 mph - N/A   Overcast
9:35 AM 21.2 °F 12.6 °F 17.6 °F 86% 30.04 in 7.0 mi South 6.9 mph - N/A   Overcast
9:56 AM 21.2 °F 12.6 °F 17.6 °F 86% 30.04 in 5.0 mi South 6.9 mph - N/A   Overcast
10:16 AM 21.2 °F 12.6 °F 17.6 °F 86% 30.04 in 5.0 mi South 6.9 mph - N/A   Overcast
10:36 AM 23.0 °F 14.7 °F 19.4 °F 86% 30.03 in 5.0 mi South 6.9 mph - N/A   Overcast
10:56 AM 23.0 °F 14.7 °F 19.4 °F 86% 30.03 in 5.0 mi South 6.9 mph - N/A   Overcast
11:15 AM 24.8 °F 17.9 °F 19.4 °F 80% 30.03 in 5.0 mi South 5.8 mph - N/A   Overcast
11:36 AM 24.8 °F 16.9 °F 19.4 °F 80% 30.02 in 5.0 mi South 6.9 mph - N/A   Overcast
11:56 AM 24.8 °F 16.1 °F 19.4 °F 80% 30.01 in 5.0 mi South 8.1 mph - N/A   Overcast
12:16 PM 24.8 °F 16.1 °F 19.4 °F 80% 30.00 in 5.0 mi South 8.1 mph - N/A   Haze
12:36 PM 24.8 °F 15.3 °F 21.2 °F 86% 29.99 in 5.0 mi South 9.2 mph - N/A   Overcast
12:56 PM 26.6 °F 16.8 °F 21.2 °F 80% 29.98 in 5.0 mi SSW 10.4 mph 16.1 mph N/A   Haze
1:16 PM 26.6 °F 17.5 °F 21.2 °F 80% 29.98 in 5.0 mi SSW 9.2 mph 17.3 mph N/A   Haze
1:36 PM 26.6 °F 17.5 °F 21.2 °F 80% 29.97 in 7.0 mi SSW 9.2 mph - N/A   Overcast
1:56 PM 26.6 °F 19.1 °F 21.2 °F 80% 29.97 in 7.0 mi SSW 6.9 mph - N/A   Overcast
2:16 PM 26.6 °F 16.8 °F 21.2 °F 80% 29.97 in 7.0 mi SSW 10.4 mph - N/A   Overcast
2:36 PM 26.6 °F 20.0 °F 21.2 °F 80% 29.96 in 7.0 mi SSW 5.8 mph - N/A   Overcast
2:56 PM 26.6 °F 15.7 °F 21.2 °F 80% 29.95 in 7.0 mi South 12.7 mph - N/A   Overcast
3:16 PM 26.6 °F 18.2 °F 21.2 °F 80% 29.95 in 7.0 mi South 8.1 mph - N/A   Overcast
3:36 PM 26.6 °F 17.5 °F 21.2 °F 80% 29.95 in 7.0 mi South 9.2 mph - N/A   Overcast
3:56 PM 26.6 °F 21.2 °F 21.2 °F 80% 29.95 in 7.0 mi South 4.6 mph - N/A   Overcast
4:16 PM 26.6 °F 21.2 °F 21.2 °F 80% 29.95 in 7.0 mi South 4.6 mph - N/A   Overcast
4:36 PM 26.6 °F 22.6 °F 21.2 °F 80% 29.95 in 7.0 mi South 3.5 mph - N/A   Overcast
4:56 PM 26.6 °F 21.2 °F 21.2 °F 80% 29.95 in 7.0 mi South 4.6 mph - N/A   Overcast
5:16 PM 26.6 °F 22.6 °F 21.2 °F 80% 29.95 in 7.0 mi South 3.5 mph - N/A   Overcast
5:36 PM 26.6 °F - 23.0 °F 86% 29.95 in 7.0 mi Calm Calm - N/A   Overcast
5:55 PM 26.6 °F - 23.0 °F 86% 29.95 in 5.0 mi Calm Calm - N/A   Overcast
6:16 PM 26.6 °F - 23.0 °F 86% 29.96 in 5.0 mi Calm Calm - N/A   Overcast
6:36 PM 26.6 °F - 23.0 °F 86% 29.96 in 5.0 mi Calm Calm - N/A   Overcast
6:56 PM 26.6 °F - 23.0 °F 86% 29.95 in 4.0 mi Calm Calm - N/A   Overcast
7:36 PM 26.6 °F - 24.8 °F 93% 29.95 in 3.0 mi Calm Calm - N/A   Overcast
7:56 PM 26.6 °F - 24.8 °F 93% 29.95 in 3.0 mi Calm Calm - N/A   Overcast
8:16 PM 26.6 °F - 24.8 °F 93% 29.96 in 2.5 mi Calm Calm - N/A   Overcast
8:36 PM 26.6 °F - 24.8 °F 93% 29.95 in 3.0 mi Calm Calm - N/A   Overcast
8:55 PM 26.6 °F - 24.8 °F 93% 29.95 in 3.0 mi Calm Calm - N/A   Overcast
9:16 PM 26.6 °F - 24.8 °F 93% 29.95 in 3.0 mi Calm Calm - N/A   Overcast
9:36 PM 26.6 °F 22.6 °F 24.8 °F 93% 29.94 in 2.5 mi ESE 3.5 mph - N/A   Overcast
9:55 PM 26.6 °F 22.6 °F 24.8 °F 93% 29.94 in 3.0 mi ESE 3.5 mph - N/A   Overcast
10:16 PM 26.6 °F 21.2 °F 24.8 °F 93% 29.94 in 3.0 mi ESE 4.6 mph - N/A   Overcast
10:36 PM 26.6 °F 21.2 °F 24.8 °F 93% 29.94 in 3.0 mi SE 4.6 mph - N/A   Overcast
10:56 PM 26.6 °F 21.2 °F 24.8 °F 93% 29.95 in 3.0 mi SE 4.6 mph - N/A   Overcast
11:15 PM 26.6 °F 21.2 °F 24.8 °F 93% 29.95 in 3.0 mi SE 4.6 mph - N/A   Overcast
11:36 PM 26.6 °F 22.6 °F 24.8 °F 93% 29.93 in 3.0 mi SE 3.5 mph - N/A   Overcast
11:56 PM 26.6 °F - 23.0 °F 86% 29.93 in 2.5 mi Calm Calm - N/A   Overcast